#timestamp,LO_Frequency,Hit 
1502582415.3,286047004.8,N
1502582435.2,286047006.6,N
1502582455.9,286047012.1,P
1502582475.7,286047001.3,N
1502582495.6,286046998.5,N
1502582515.4,286046996.8,N
1502582535.2,286046997.0,N
1502582555.1,286046996.8,N
1502582556.0,286046996.8,N
1502582575.8,286046998.5,N
1502582595.6,286046998.1,N
1502582615.5,286047001.7,N
1502582635.3,286047007.1,N
1502582655.1,286047004.8,N
1502582675.8,286047007.2,N
1502582695.7,286047003.6,N
1502582715.5,286047004.2,N
1502582735.3,286047002.6,N
1502582755.2,286047000.2,N
1502582775.0,286047003.5,N
1502582775.9,286047003.5,N
1502582795.7,286047008.5,N
1502582815.6,286047006.9,N
1502582835.4,286047006.1,N
1502582855.2,286047007.5,N
1502582875.1,286047006.7,N
1502582876.0,286047006.7,N
1502582895.8,286047004.9,N
1502582915.6,286047007.3,N
1502582935.5,286047005.6,N
1502582955.3,286047008.6,N
1502582975.1,286047005.2,N
1502582995.9,286047007.0,N
1502583015.7,286047007.4,N
1502583035.5,286047004.5,N
1502583055.3,286047008.2,N
1502583075.2,286047010.3,N
1502583095.0,286047007.9,N
1502583095.9,286047007.9,N
1502583115.8,286047006.8,N
1502583135.6,286047005.1,N
1502583155.4,286047007.7,P
1502583175.3,286047003.5,P
1502583195.1,286047002.3,N
1502583196.0,286047002.3,N
1502583215.8,286046998.5,N
1502583235.7,286046999.4,N
1502583255.5,286047002.8,N
1502583275.3,286046999.7,N
1502583295.1,286047000.7,N
1502583315.9,286047005.6,N
1502583335.7,286047003.5,N
1502583355.5,286047002.4,N
1502583375.4,286047001.4,N
1502583395.2,286047005.2,N
1502583415.0,286047007.1,N
1502583415.9,286047007.1,N
1502583435.8,286047007.3,N
1502583455.6,286047008.0,N
1502583475.4,286047007.9,N
1502583495.3,286047008.7,N
1502583515.1,286047009.7,P
1502583535.8,286047006.5,N
1502583555.7,286047002.8,N
1502583575.5,286046999.3,N
1502583595.3,286046997.9,N
1502583615.2,286046994.1,N
1502583635.9,286046994.1,N
1502583655.7,286046991.7,N
1502583675.6,286046993.0,N
1502583695.4,286046992.6,N
1502583715.2,286046993.2,N
1502583735.0,286046990.3,N
1502583735.9,286046990.3,N
1502583755.8,286046991.3,N
1502583775.6,286046988.6,N
1502583795.4,286046986.9,N
1502583815.3,286046989.9,N
1502583835.1,286046987.1,N
1502583855.8,286046987.6,N
1502583875.7,286046986.5,N
1502583895.5,286046986.2,N
1502583915.3,286046985.9,N
1502583935.2,286046984.7,N
1502583955.9,286046982.4,N
1502583975.7,286046982.9,N
1502583995.5,286046983.4,N
1502584015.4,286046985.1,N
1502584035.2,286046984.7,N
1502584055.0,286046982.5,N
1502584055.9,286046982.5,N
1502584075.8,286046981.3,N
1502584095.6,286046981.9,N
1502584115.4,286046981.1,P
1502584135.3,286046992.1,N
1502584155.1,286046991.7,N
1502584175.8,286046990.4,N
1502584195.7,286046992.8,N
1502584215.5,286046989.1,N
1502584235.3,286046989.9,N
1502584255.2,286046991.1,N
1502584275.9,286046991.3,N
1502584295.7,286046994.1,N
1502584315.6,286046993.4,N
1502584335.4,286046998.0,N
1502584355.2,286046993.9,N
1502584375.1,286046994.1,N
1502584376.0,286046994.1,N
1502584395.8,286046997.6,N
1502584415.6,286046998.2,N
1502584435.4,286046999.6,N
1502584455.3,286046998.0,N
1502584475.1,286046995.9,N
1502584495.8,286046997.8,N
1502584515.7,286046996.6,N
1502584535.5,286046998.8,N
1502584555.3,286046994.9,N
1502584575.2,286046995.4,N
1502584595.9,286046999.6,N
1502584615.7,286047000.6,N
1502584635.6,286046998.4,N
1502584655.4,286046999.2,N
1502584675.2,286046996.6,N
1502584695.1,286046999.6,N
1502584696.0,286046999.6,N
1502584715.8,286046998.7,N
1502584735.6,286047000.8,N
1502584755.4,286046999.0,N
1502584775.3,286046997.1,N
1502584795.1,286046999.2,N
1502584815.8,286046998.9,N
1502584835.7,286047001.2,N
1502584855.5,286046998.5,N
1502584875.3,286047000.4,N
1502584895.2,286047000.9,N
1502584915.9,286047001.9,N
1502584935.7,286047002.5,N
1502584955.6,286047001.9,N
1502584975.4,286046999.8,N
1502584995.2,286046998.1,N
1502585015.1,286047002.0,N
1502585016.0,286047002.0,N
1502585035.8,286047002.0,N
1502585055.6,286047001.8,N
1502585075.5,286047006.0,N
1502585095.3,286047004.8,N
1502585115.1,286047006.7,N
1502585135.9,286047005.5,N
1502585155.7,286047003.9,N
1502585175.5,286047000.1,N
1502585195.3,286047002.3,N
1502585215.2,286047001.9,N
1502585235.0,286047003.5,N
1502585235.9,286047003.5,N
1502585255.7,286047005.3,N
1502585275.6,286047003.2,N
1502585295.4,286047001.8,N
1502585315.2,286047005.2,N
1502585335.1,286047006.4,N
1502585336.0,286047006.4,N
1502585355.8,286047004.7,N
1502585375.6,286047003.6,N
1502585395.5,286047001.4,N
1502585415.3,286047001.8,N
1502585435.1,286047003.7,N
1502585455.9,286047001.4,N
1502585475.7,286047002.7,N
1502585495.5,286046999.8,N
1502585515.4,286046999.8,N
1502585535.2,286047001.0,N
1502585555.0,286047003.0,N
1502585555.9,286047003.0,N
1502585575.8,286047004.3,N
1502585595.6,286047002.8,N
1502585615.4,286047002.5,N
1502585635.2,286047001.3,N
1502585655.1,286047000.2,N
1502585656.0,286047000.2,N
1502585675.8,286047001.0,N
1502585695.6,286046998.1,N
1502585715.5,286047000.4,N
1502585735.3,286047000.4,N
1502585755.1,286046999.1,N
1502585775.9,286046996.5,N
1502585795.7,286046999.4,N
1502585815.5,286047000.3,N
1502585835.4,286046998.2,N
1502585855.2,286047002.6,N
1502585875.0,286047005.2,N
1502585875.9,286047005.2,N
1502585895.8,286047003.4,N
1502585915.6,286047000.1,N
1502585935.4,286046996.8,N
1502585955.3,286046997.7,N
1502585975.1,286046997.9,N
1502585976.0,286046997.9,N
1502585995.8,286046995.0,N
